TimeEST,TemperatureF,Dew PointF,Humidity,Sea Level PressureIn,VisibilityMPH,Wind Direction,Wind SpeedMPH,Gust SpeedMPH,PrecipitationIn,Events,Conditions,WindDirDegrees,DateUTC
12:53 AM,28.0,17.1,63,30.04,10.0,NW,8.1,-,N/A,,Overcast,310,2013-01-01 05:53:00
2:53 AM,27.0,18.0,69,30.05,10.0,NW,8.1,-,N/A,,Overcast,320,2013-01-01 07:53:00
3:53 AM,26.1,15.1,63,30.05,10.0,NW,6.9,-,N/A,,Overcast,320,2013-01-01 08:53:00
4:53 AM,25.0,16.0,69,30.06,10.0,North,11.5,-,N/A,,Overcast,350,2013-01-01 09:53:00
5:53 AM,24.1,12.9,62,30.07,10.0,NNW,6.9,-,N/A,,Mostly Cloudy,340,2013-01-01 10:53:00
6:53 AM,23.0,12.0,63,30.08,10.0,North,8.1,-,N/A,,Overcast,350,2013-01-01 11:53:00
7:53 AM,19.9,12.0,71,30.10,10.0,North,4.6,-,N/A,,Scattered Clouds,360,2013-01-01 12:53:00
8:53 AM,19.9,12.9,74,30.14,10.0,NNW,5.8,-,N/A,,Overcast,330,2013-01-01 13:53:00
9:53 AM,21.0,12.0,68,30.17,10.0,NNW,4.6,-,N/A,,Overcast,340,2013-01-01 14:53:00
10:53 AM,21.9,10.9,63,30.17,10.0,NNW,8.1,-,N/A,,Overcast,340,2013-01-01 15:53:00
11:53 AM,21.9,9.0,58,30.12,10.0,NNW,11.5,-,N/A,,Overcast,340,2013-01-01 16:53:00
12:53 PM,21.9,7.0,53,30.12,10.0,North,9.2,-,N/A,,Scattered Clouds,350,2013-01-01 17:53:00
1:53 PM,23.0,7.0,50,30.11,10.0,NW,3.5,-,N/A,,Overcast,320,2013-01-01 18:53:00
2:53 PM,23.0,9.0,55,30.11,10.0,West,8.1,-,N/A,,Overcast,280,2013-01-01 19:53:00
3:53 PM,23.0,8.1,53,30.11,10.0,WNW,10.4,-,N/A,,Clear,290,2013-01-01 20:53:00
4:53 PM,21.9,7.0,53,30.12,10.0,NW,4.6,-,N/A,,Clear,310,2013-01-01 21:53:00
5:53 PM,19.9,5.0,52,30.12,10.0,Calm,Calm,-,N/A,,Clear,0,2013-01-01 22:53:00
6:53 PM,12.9,6.1,74,30.12,10.0,Calm,Calm,-,N/A,,Clear,0,2013-01-01 23:53:00
7:53 PM,5.0,1.0,84,30.12,10.0,Calm,Calm,-,N/A,,Clear,0,2013-01-02 00:53:00
8:53 PM,6.1,3.0,87,30.13,10.0,West,4.6,-,N/A,,Overcast,270,2013-01-02 01:53:00
9:44 PM,12.2,8.6,85,30.08,10.0,WSW,4.6,-,N/A,,Overcast,250,2013-01-02 02:44:00
9:53 PM,12.9,7.0,77,30.13,10.0,WSW,3.5,-,N/A,,Overcast,250,2013-01-02 02:53:00
10:53 PM,15.1,8.1,74,30.11,10.0,WSW,3.5,-,N/A,,Overcast,240,2013-01-02 03:53:00
11:34 PM,10.4,8.6,92,30.07,10.0,Calm,Calm,-,N/A,,Scattered Clouds,0,2013-01-02 04:34:00
11:53 PM,8.1,3.9,83,30.12,10.0,SW,4.6,-,N/A,,Partly Cloudy,230,2013-01-02 04:53:00